Total_Precipitation_Accumulation
0.00 0.00 0.00 0.00 0.00 0.00 0.00 0.00 0.00 0.00 0.00 0.00 0.00 0.00 0.00 0.00 0.00 0.00 0.00 0.00 0.00 0.00 0.00 0.00 0.00 0.00 0.00 0.00 0.00 0.00 0.00 0.07 0.08 0.13 0.49 0.18 0.14 0.08 0.14 0.36 0.50 0.29 0.16 0.24 0.29 0.27 0.16 0.27 0.05 0.12 0.07 0.05 0.01 0.00 0.00 0.01 0.01 0.00 0.05 0.00 0.01 0.01 0.03 0.01 0.02 0.02 0.01 0.03 0.03 0.02 0.02 0.03 0.05 0.04 0.04 0.03 0.05 0.05 0.08 0.14 0.13 0.19 0.18 0.12 0.13 0.14 0.10 0.09 0.10 0.07 0.08 0.07 0.07 0.11 0.10 0.09 0.08
0.00 0.00 0.00 0.00 0.00 0.00 0.00 0.00 0.00 0.00 0.00 0.00 0.00 0.00 0.00 0.00 0.00 0.00 0.00 0.00 0.00 0.00 0.00 0.00 0.00 0.00 0.00 0.00 0.00 0.00 0.00 0.02 0.01 0.03 0.23 0.25 0.12 0.11 0.23 0.35 0.47 0.37 0.22 0.26 0.22 0.17 0.35 0.56 0.14 0.04 0.05 0.20 0.07 0.01 0.01 0.01 0.01 0.00 0.01 0.01 0.00 0.00 0.00 0.02 0.03 0.01 0.01 0.01 0.02 0.03 0.05 0.06 0.08 0.10 0.05 0.08 0.06 0.03 0.05 0.07 0.14 0.10 0.16 0.14 0.08 0.11 0.09 0.08 0.10 0.05 0.07 0.08 0.07 0.10 0.10 0.08 0.12
0.00 0.00 0.00 0.00 0.00 0.00 0.00 0.00 0.00 0.00 0.00 0.00 0.00 0.00 0.00 0.00 0.00 0.00 0.00 0.00 0.00 0.00 0.00 0.00 0.00 0.00 0.00 0.00 0.00 0.00 0.47 0.06 0.02 0.05 0.19 0.23 0.19 0.54 0.33 0.38 0.41 0.23 0.24 0.21 0.20 0.19 0.38 0.39 0.12 0.05 0.04 0.12 0.19 0.10 0.01 0.01 0.01 0.01 0.01 0.02 0.01 0.01 0.01 0.01 0.02 0.03 0.03 0.03 0.04 0.05 0.07 0.08 0.05 0.07 0.10 0.09 0.12 0.03 0.03 0.06 0.11 0.13 0.15 0.09 0.09 0.09 0.11 0.04 0.03 0.03 0.04 0.07 0.06 0.09 0.07 0.04 0.07
0.00 0.00 0.00 0.00 0.00 0.00 0.00 0.00 0.00 0.00 0.00 0.00 0.00 0.00 0.00 0.00 0.00 0.00 0.00 0.00 0.00 0.00 0.00 0.00 0.00 0.00 0.00 0.00 0.01 0.00 0.02 0.04 0.07 0.04 0.17 0.19 0.25 0.29 0.33 0.56 0.20 0.22 0.29 0.17 0.14 0.23 0.44 0.52 0.29 0.09 0.05 0.06 0.06 0.14 0.09 0.01 0.01 0.01 0.01 0.02 0.01 0.01 0.01 0.01 0.01 0.05 0.06 0.04 0.06 0.10 0.08 0.04 0.07 0.07 0.08 0.05 0.02 0.01 0.01 0.06 0.05 0.09 0.10 0.15 0.09 0.07 0.04 0.02 0.02 0.03 0.03 0.02 0.03 0.03 0.03 0.05 0.08
0.00 0.00 0.00 0.00 0.00 0.00 0.00 0.00 0.00 0.00 0.00 0.00 0.00 0.00 0.00 0.00 0.00 0.00 0.00 0.00 0.00 0.00 0.00 0.00 0.00 0.00 0.01 0.03 0.01 0.09 0.20 0.06 0.07 0.05 0.05 0.12 0.23 0.54 0.69 0.39 0.34 0.18 0.22 0.26 0.27 0.40 0.30 0.57 0.45 0.66 0.11 0.03 0.09 0.12 0.25 0.04 0.01 0.02 0.01 0.00 0.02 0.01 0.01 0.01 0.02 0.02 0.07 0.08 0.07 0.07 0.07 0.11 0.12 0.08 0.07 0.05 0.02 0.01 0.01 0.02 0.02 0.07 0.08 0.10 0.10 0.04 0.03 0.01 0.01 0.01 0.02 0.03 0.02 0.04 0.03 0.04 0.05
0.00 0.00 0.00 0.00 0.00 0.00 0.00 0.00 0.00 0.00 0.00 0.00 0.00 0.00 0.00 0.00 0.00 0.00 0.00 0.00 0.00 0.00 0.00 0.00 0.00 0.01 0.02 0.02 0.05 0.10 0.07 0.27 0.03 0.11 0.05 0.20 0.30 0.46 0.70 0.38 0.56 0.19 0.30 0.25 0.26 0.21 0.21 0.25 0.34 0.23 0.14 0.12 0.19 0.18 0.06 0.26 0.02 0.02 0.01 0.01 0.01 0.01 0.01 0.00 0.01 0.03 0.06 0.07 0.09 0.12 0.14 0.18 0.14 0.11 0.07 0.06 0.11 0.02 0.01 0.01 0.01 0.03 0.08 0.09 0.07 0.03 0.01 0.01 0.00 0.01 0.01 0.04 0.07 0.06 0.04 0.04 0.04
0.00 0.00 0.00 0.00 0.00 0.00 0.00 0.00 0.00 0.00 0.00 0.00 0.00 0.00 0.00 0.00 0.00 0.00 0.00 0.00 0.00 0.00 0.00 0.00 0.00 0.00 0.03 0.01 0.03 0.06 0.05 0.01 0.03 0.07 0.05 0.15 0.42 0.68 0.65 0.85 0.41 0.39 0.45 0.46 0.30 0.17 0.19 0.13 0.07 0.19 0.19 0.14 0.09 0.04 0.08 0.12 0.08 0.02 0.02 0.03 0.03 0.01 0.01 0.03 0.02 0.02 0.04 0.06 0.07 0.19 0.23 0.25 0.18 0.09 0.06 0.11 0.07 0.04 0.01 0.02 0.01 0.02 0.03 0.03 0.04 0.01 0.01 0.01 0.02 0.01 0.01 0.04 0.03 0.02 0.01 0.02 0.01
0.00 0.00 0.00 0.00 0.00 0.00 0.00 0.00 0.00 0.00 0.00 0.00 0.00 0.00 0.00 0.00 0.00 0.00 0.00 0.00 0.00 0.00 0.00 0.00 0.00 0.00 0.60 0.04 0.24 0.05 0.03 0.08 0.05 0.03 0.09 0.19 0.27 0.61 0.79 0.98 0.83 1.11 0.82 0.52 0.32 0.24 0.32 0.16 0.15 0.10 0.11 0.19 0.14 0.19 0.08 0.08 0.06 0.04 0.08 0.07 0.05 0.02 0.04 0.03 0.02 0.02 0.02 0.06 0.14 0.14 0.26 0.20 0.18 0.15 0.09 0.10 0.10 0.02 0.03 0.02 0.02 0.02 0.02 0.02 0.02 0.01 0.01 0.02 0.01 0.01 0.02 0.03 0.00 0.01 0.00 0.01 0.01
0.00 0.00 0.00 0.00 0.00 0.00 0.00 0.00 0.00 0.00 0.00 0.00 0.00 0.00 0.00 0.00 0.00 0.00 0.00 0.00 0.00 0.00 0.00 0.00 0.00 0.07 0.12 0.06 0.16 0.11 0.09 0.05 0.02 0.04 0.16 0.26 0.35 0.49 0.73 1.21 1.37 1.23 1.15 0.82 0.98 0.28 0.29 0.16 0.06 0.19 0.26 0.46 0.27 0.53 0.16 0.19 0.10 0.06 0.05 0.06 0.03 0.02 0.02 0.02 0.05 0.03 0.03 0.04 0.08 0.11 0.19 0.10 0.09 0.06 0.10 0.11 0.11 0.02 0.05 0.02 0.02 0.03 0.02 0.04 0.03 0.02 0.02 0.02 0.02 0.02 0.01 0.01 0.01 0.02 0.01 0.02 0.00
0.00 0.00 0.00 0.00 0.00 0.00 0.00 0.00 0.00 0.00 0.00 0.00 0.00 0.00 0.00 0.00 0.00 0.00 0.00 0.00 0.00 0.00 0.00 0.00 0.00 0.02 0.05 0.41 0.17 0.18 0.19 0.17 0.10 0.22 0.40 0.78 0.89 1.23 1.39 1.94 1.26 1.01 0.99 1.27 0.79 0.73 0.52 0.62 0.30 0.14 0.30 1.14 0.89 0.37 0.19 0.13 0.12 0.09 0.06 0.05 0.07 0.05 0.04 0.03 0.04 0.06 0.11 0.06 0.08 0.11 0.10 0.09 0.06 0.05 0.04 0.09 0.08 0.06 0.02 0.02 0.03 0.03 0.02 0.04 0.08 0.05 0.03 0.01 0.02 0.03 0.02 0.01 0.02 0.03 0.02 0.00 0.00
0.00 0.00 0.00 0.00 0.00 0.00 0.00 0.00 0.00 0.00 0.00 0.00 0.00 0.00 0.00 0.00 0.00 0.00 0.00 0.00 0.00 0.00 0.00 0.00 0.00 0.03 0.08 0.19 0.31 0.34 0.14 0.15 0.28 0.71 0.71 0.95 0.92 1.73 2.12 1.15 1.26 1.36 1.68 1.25 1.32 0.55 0.88 0.62 0.78 0.47 0.63 1.67 0.97 0.53 0.31 0.41 0.28 0.22 0.37 0.15 0.04 0.06 0.12 0.10 0.12 0.10 0.11 0.11 0.14 0.17 0.14 0.06 0.06 0.06 0.06 0.08 0.11 0.08 0.04 0.03 0.07 0.04 0.03 0.05 0.06 0.06 0.02 0.01 0.01 0.01 0.01 0.01 0.01 0.00 0.00 0.00 0.00
0.00 0.00 0.00 0.00 0.00 0.00 0.00 0.00 0.00 0.00 0.00 0.00 0.00 0.00 0.00 0.00 0.00 0.00 0.00 0.00 0.00 0.00 0.01 0.00 0.11 0.01 0.10 0.10 0.35 0.50 0.30 0.44 0.72 0.86 0.79 0.71 1.00 1.11 1.08 1.11 1.50 1.98 1.80 1.36 0.85 0.98 0.61 0.64 0.55 0.88 0.53 0.68 0.76 0.49 0.31 0.29 0.37 0.27 0.17 0.16 0.30 0.49 0.66 0.51 0.33 0.20 0.12 0.17 0.23 0.12 0.07 0.08 0.13 0.08 0.09 0.05 0.06 0.06 0.07 0.08 0.08 0.07 0.04 0.10 0.05 0.01 0.01 0.01 0.01 0.01 0.00 0.00 0.00 0.00 0.00 0.00 0.00
0.00 0.00 0.00 0.00 0.00 0.00 0.00 0.00 0.00 0.00 0.00 0.00 0.00 0.00 0.00 0.00 0.00 0.00 0.00 0.00 0.00 0.00 0.00 0.00 0.00 0.00 0.51 0.42 0.33 0.33 0.30 0.76 0.79 0.75 0.78 0.89 0.91 0.78 1.31 1.33 2.49 2.31 1.63 1.43 0.93 1.08 1.04 0.72 0.52 0.48 0.60 0.43 0.29 0.22 0.21 0.39 0.47 0.39 0.44 0.62 0.50 0.46 0.27 1.24 1.09 0.77 0.66 1.08 0.66 0.33 0.15 0.09 0.12 0.12 0.12 0.12 0.09 0.11 0.11 0.12 0.06 0.08 0.09 0.06 0.06 0.02 0.01 0.01 0.01 0.01 0.00 0.00 0.00 0.00 0.00 0.00 0.00
0.00 0.00 0.00 0.00 0.00 0.00 0.00 0.00 0.00 0.00 0.00 0.00 0.00 0.00 0.00 0.00 0.00 0.00 0.00 0.00 0.00 0.00 0.00 0.00 0.01 0.02 0.56 0.20 0.71 0.38 0.85 0.70 0.74 0.69 0.48 0.53 0.43 0.81 1.07 1.53 1.65 1.91 2.19 1.45 0.71 0.99 0.77 0.75 0.78 0.61 0.65 0.68 0.68 0.40 0.28 0.24 0.35 0.18 0.38 0.54 0.58 0.45 0.58 0.57 0.64 0.76 1.03 1.06 0.94 0.39 0.27 0.15 0.15 0.12 0.17 0.11 0.20 0.19 0.13 0.07 0.09 0.07 0.06 0.04 0.05 0.04 0.02 0.02 0.01 0.01 0.00 0.00 0.00 0.00 0.00 0.00 0.00
0.00 0.00 0.00 0.00 0.00 0.00 0.00 0.00 0.00 0.00 0.00 0.00 0.00 0.00 0.00 0.00 0.00 0.00 0.00 0.00 0.00 0.00 0.00 0.00 0.00 0.01 1.34 0.14 0.46 0.32 0.35 0.54 0.40 0.25 0.39 0.39 0.44 0.85 1.89 1.73 2.68 2.59 2.30 1.75 0.77 0.61 0.61 0.71 0.96 0.70 0.67 0.76 0.82 0.85 0.85 0.47 0.36 0.40 0.26 0.68 0.50 0.42 0.40 1.09 1.30 0.65 0.48 0.97 1.02 0.62 0.35 0.30 0.29 0.14 0.16 0.18 0.19 0.13 0.27 0.08 0.05 0.04 0.04 0.04 0.06 0.03 0.02 0.02 0.01 0.01 0.00 0.01 0.00 0.00 0.00 0.00 0.00
0.00 0.00 0.00 0.00 0.00 0.00 0.00 0.00 0.00 0.00 0.00 0.00 0.00 0.00 0.00 0.00 0.00 0.00 0.00 0.00 0.00 0.00 0.00 0.08 0.00 0.09 0.13 0.05 0.18 0.21 0.14 0.28 0.39 0.33 0.38 0.47 0.79 0.97 1.32 1.73 1.92 2.51 2.21 1.21 0.86 0.92 0.88 0.77 1.10 1.30 1.03 0.94 0.74 0.96 0.68 0.57 0.65 0.41 0.63 0.87 1.63 0.60 0.57 0.74 1.11 1.05 0.99 0.78 0.96 0.56 0.48 0.63 0.57 0.51 0.50 0.36 0.26 0.10 0.12 0.18 0.02 0.04 0.03 0.06 0.02 0.01 0.01 0.00 0.01 0.01 0.01 0.01 0.00 0.00 0.00 0.00 0.00
0.00 0.00 0.00 0.00 0.00 0.00 0.00 0.00 0.00 0.00 0.00 0.00 0.00 0.00 0.00 0.00 0.00 0.00 0.00 0.00 0.01 0.00 0.01 0.01 0.03 0.01 0.13 0.13 0.15 0.08 0.18 0.18 0.18 0.29 0.33 0.93 1.28 1.19 1.45 1.17 1.97 1.46 1.30 1.05 1.13 0.90 1.30 0.97 1.09 1.34 1.55 1.17 1.33 1.14 0.54 0.80 0.62 1.02 1.13 1.46 1.01 0.79 0.55 0.98 0.85 1.18 0.68 0.86 0.63 0.61 0.47 0.48 0.75 0.56 0.46 0.49 0.31 0.43 0.12 0.07 0.04 0.07 0.05 0.04 0.02 0.02 0.01 0.01 0.01 0.00 0.01 0.02 0.02 0.00 0.00 0.00 0.00
0.00 0.00 0.00 0.00 0.00 0.00 0.00 0.00 0.00 0.00 0.00 0.00 0.00 0.00 0.00 0.00 0.00 0.00 0.00 0.00 0.00 0.00 0.00 0.01 0.02 0.05 0.15 0.09 0.15 0.07 0.17 0.28 0.33 0.43 0.90 0.88 0.86 1.28 0.94 0.90 1.14 1.69 1.12 1.19 1.46 1.38 1.02 1.53 1.05 1.39 1.39 1.49 1.37 1.25 1.10 1.11 1.79 1.24 1.52 1.35 1.17 0.94 0.78 1.38 1.35 1.55 1.45 1.39 0.60 0.61 0.89 1.02 0.71 0.81 0.65 1.09 0.46 0.25 0.32 0.06 0.12 0.08 0.08 0.09 0.03 0.01 0.01 0.01 0.01 0.01 0.00 0.00 0.03 0.02 0.00 0.00 0.00
0.00 0.00 0.00 0.00 0.00 0.00 0.00 0.00 0.00 0.00 0.00 0.00 0.00 0.00 0.00 0.00 0.00 0.00 0.01 0.00 0.00 0.00 0.01 0.01 0.05 0.16 0.21 0.25 0.24 0.17 0.21 0.33 0.37 0.74 0.86 0.82 0.79 0.67 0.88 1.44 1.47 1.22 1.51 0.98 1.25 1.45 2.02 1.24 1.01 1.17 1.33 1.46 1.68 1.63 0.90 1.32 1.27 0.96 1.28 1.04 0.72 1.03 1.55 1.36 2.17 1.27 1.66 1.21 1.50 0.88 1.61 1.30 1.01 1.48 0.95 0.63 0.55 0.54 0.29 0.06 0.09 0.21 0.13 0.11 0.03 0.02 0.01 0.01 0.01 0.00 0.00 0.00 0.01 0.01 0.00 0.02 0.03
0.00 0.00 0.00 0.00 0.00 0.00 0.00 0.00 0.00 0.00 0.00 0.00 0.00 0.00 0.00 0.00 0.00 0.00 0.01 0.01 0.00 0.00 0.04 0.03 0.07 0.29 0.21 0.32 0.26 0.28 0.42 0.53 0.64 0.60 0.76 0.92 1.08 0.78 0.69 1.03 0.85 1.09 1.19 1.29 1.73 1.28 1.54 1.27 1.08 1.25 1.42 1.55 1.48 1.28 1.08 0.89 1.21 1.67 0.67 0.92 1.03 0.99 1.30 2.03 1.80 1.85 1.79 2.30 2.28 1.95 1.90 1.60 1.48 1.60 1.40 0.95 0.91 0.70 0.48 0.16 0.21 0.25 0.20 0.17 0.08 0.06 0.03 0.01 0.01 0.01 0.01 0.00 0.00 0.01 0.02 0.02 0.01
0.00 0.00 0.00 0.00 0.00 0.00 0.00 0.00 0.00 0.00 0.00 0.00 0.00 0.00 0.00 0.00 0.00 0.00 0.00 0.00 0.03 0.01 0.00 0.03 0.10 0.21 0.22 0.24 0.33 0.26 0.40 0.55 0.75 0.64 0.93 0.71 1.51 1.18 1.56 1.78 1.19 1.87 2.36 2.12 1.80 1.37 0.95 1.21 0.93 0.93 1.04 0.81 1.03 0.92 1.10 1.21 1.69 0.96 0.83 1.26 1.09 0.91 0.85 2.19 2.13 1.48 2.07 2.01 1.75 2.17 1.56 1.90 1.72 1.56 1.01 0.79 0.77 0.54 0.76 0.46 0.59 0.41 0.42 0.33 0.15 0.09 0.15 0.14 0.01 0.03 0.06 0.02 0.02 0.02 0.01 0.01 0.02
0.00 0.00 0.00 0.00 0.00 0.00 0.00 0.00 0.00 0.00 0.00 0.00 0.00 0.00 0.00 0.00 0.00 0.00 0.00 0.00 0.01 0.00 0.03 0.01 0.07 0.04 0.18 0.26 0.25 0.19 0.32 0.49 0.45 0.52 1.08 1.22 1.24 1.30 3.42 2.79 2.86 2.84 2.35 1.35 1.45 1.42 1.30 0.83 0.66 0.67 0.89 1.08 1.07 0.87 0.95 1.52 1.22 1.21 1.09 0.91 1.13 1.08 1.47 2.00 1.92 1.66 1.50 1.74 1.64 1.52 2.51 2.08 2.44 1.56 1.78 1.41 1.08 1.12 0.73 0.56 0.52 0.51 0.34 0.32 0.27 0.53 0.21 0.14 0.14 0.14 0.05 0.05 0.02 0.02 0.01 0.02 0.00
0.00 0.00 0.00 0.00 0.00 0.00 0.00 0.00 0.00 0.00 0.00 0.00 0.00 0.00 0.00 0.00 0.00 0.00 0.00 0.00 0.00 0.00 0.00 0.00 0.03 0.05 0.10 0.09 0.13 0.25 0.34 0.46 0.66 1.45 1.39 1.91 3.13 3.39 2.86 2.69 1.82 2.09 1.45 1.36 1.45 1.11 1.13 1.05 0.76 0.86 0.88 0.73 1.05 1.13 0.97 0.98 1.43 1.63 1.16 1.06 1.19 1.67 1.27 1.85 1.18 1.67 1.88 2.50 1.94 2.10 1.82 1.50 1.41 2.05 1.68 1.21 0.86 1.33 0.85 0.92 0.69 0.51 0.46 0.52 0.45 0.57 0.41 0.34 0.24 0.13 0.39 0.24 0.06 0.02 0.02 0.01 0.00
0.00 0.00 0.00 0.00 0.00 0.00 0.00 0.00 0.00 0.00 0.00 0.00 0.00 0.00 0.00 0.00 0.00 0.00 0.00 0.00 0.00 0.00 0.00 0.02 0.06 0.13 0.11 0.16 0.14 0.11 0.23 0.34 1.03 1.48 2.67 3.02 2.95 3.50 2.71 3.06 2.85 2.71 2.00 1.55 1.01 1.48 0.66 1.16 0.80 0.71 0.70 0.77 1.05 1.04 0.71 0.66 1.04 1.10 0.99 1.21 1.69 1.85 2.00 1.92 1.28 1.51 2.84 3.29 2.62 2.67 1.68 1.67 1.72 1.66 1.82 1.37 1.01 1.07 0.76 0.90 0.98 1.11 0.87 0.55 0.58 0.55 0.52 0.32 0.24 0.29 0.28 0.29 0.38 0.13 0.02 0.01 0.02
0.00 0.00 0.00 0.00 0.00 0.00 0.00 0.00 0.00 0.00 0.00 0.00 0.00 0.00 0.00 0.00 0.00 0.00 0.00 0.00 0.00 0.00 0.00 0.02 0.09 0.14 0.29 0.23 0.19 0.26 0.36 0.52 1.36 1.95 3.21 3.60 1.67 1.52 2.39 2.69 3.08 2.19 1.36 1.16 1.17 1.30 1.22 1.16 1.07 0.54 0.86 0.85 0.70 0.79 0.66 0.62 0.99 1.27 0.82 1.30 1.62 1.78 1.30 1.75 1.71 2.16 3.69 2.29 2.52 2.25 1.87 2.07 1.96 1.48 1.57 1.45 1.28 1.42 1.39 1.38 1.53 1.42 1.39 1.03 0.96 0.37 0.52 0.54 0.68 0.63 0.54 0.49 0.42 0.55 0.19 0.03 0.03
0.00 0.00 0.00 0.00 0.00 0.00 0.00 0.00 0.00 0.00 0.00 0.00 0.00 0.00 0.00 0.00 0.00 0.00 0.00 0.00 0.00 0.00 0.01 0.02 0.15 0.23 0.21 0.26 0.26 0.29 0.39 0.57 0.35 1.79 3.81 2.68 3.25 2.85 1.89 2.09 1.46 1.26 1.83 2.35 1.76 1.35 1.42 1.66 0.85 0.65 0.97 0.86 0.92 1.05 0.88 0.75 1.10 1.34 0.96 1.18 0.94 1.26 1.73 2.54 2.17 2.97 3.63 3.35 2.54 1.85 2.17 1.92 2.38 2.25 1.76 1.69 1.05 1.42 1.97 2.52 2.65 2.17 2.01 1.65 1.00 0.65 0.45 0.41 1.20 0.99 0.94 0.45 0.62 0.29 0.40 0.20 0.03
0.00 0.00 0.00 0.00 0.00 0.00 0.00 0.00 0.00 0.00 0.00 0.00 0.00 0.00 0.00 0.00 0.00 0.00 0.00 0.00 0.00 0.00 0.01 0.06 0.17 0.38 0.22 0.18 0.39 0.57 0.42 0.26 0.41 2.31 0.73 0.67 1.33 2.09 2.31 1.45 0.64 0.91 0.82 1.18 1.30 1.46 1.22 1.03 1.38 0.89 1.27 1.42 1.39 1.24 0.91 0.87 1.17 1.55 1.52 1.20 1.10 1.74 1.96 2.23 3.16 3.92 3.28 3.34 3.03 2.32 2.08 2.38 2.06 2.02 1.66 1.58 2.72 2.82 1.67 1.64 1.62 3.01 2.43 2.29 1.35 0.77 0.85 0.74 1.02 0.95 0.81 0.67 0.45 0.25 0.70 0.30 0.07
0.00 0.00 0.00 0.00 0.00 0.00 0.00 0.00 0.00 0.00 0.00 0.00 0.00 0.00 0.00 0.00 0.00 0.00 0.00 0.02 0.01 0.01 0.03 0.06 0.07 0.19 0.25 0.24 0.25 0.26 0.28 0.32 0.34 0.46 0.60 1.05 1.33 1.79 1.26 1.05 1.26 1.11 0.61 1.80 0.90 1.25 1.56 1.83 1.53 0.86 0.89 0.76 0.74 0.98 0.91 1.23 1.38 1.32 1.51 1.27 1.50 1.67 1.58 1.83 2.86 2.63 3.12 2.92 2.82 2.13 1.77 2.01 1.80 1.84 1.71 2.49 1.79 1.76 1.55 1.15 1.16 2.14 2.33 2.43 2.28 1.16 0.73 0.88 1.14 0.83 0.90 0.48 0.39 0.57 0.53 0.37 0.26
0.00 0.00 0.00 0.00 0.00 0.00 0.00 0.00 0.00 0.00 0.00 0.00 0.00 0.00 0.00 0.00 0.00 0.00 0.01 0.02 0.03 0.01 0.03 0.06 0.14 0.18 0.22 0.29 0.31 0.31 0.26 0.32 0.33 0.18 0.53 0.60 1.06 0.76 1.17 1.80 2.61 1.66 0.94 0.94 0.90 0.82 1.27 1.91 2.06 0.78 0.46 0.52 1.06 0.93 1.27 0.88 0.78 1.02 1.37 1.59 1.67 1.39 1.17 1.50 1.48 1.66 1.85 2.94 2.47 2.17 2.95 1.58 1.86 1.84 2.10 1.69 1.36 1.16 1.39 1.64 1.67 1.43 2.40 3.25 3.29 2.36 2.06 1.64 0.83 0.57 0.98 0.73 0.62 0.43 0.36 0.30 0.15
0.00 0.00 0.00 0.00 0.00 0.00 0.00 0.00 0.00 0.00 0.00 0.00 0.00 0.00 0.00 0.00 0.00 0.00 0.02 0.02 0.03 0.05 0.07 0.11 0.13 0.17 0.25 0.29 0.41 0.42 0.52 0.57 0.38 0.47 0.77 1.05 0.48 0.92 1.19 1.85 2.10 1.61 0.89 0.70 1.00 0.90 1.47 1.16 1.56 1.36 0.94 1.34 1.30 1.09 0.93 0.85 0.83 1.13 0.90 1.18 1.20 1.36 1.21 1.06 1.34 1.46 2.15 2.22 2.47 2.30 2.04 2.52 2.45 2.47 1.99 1.58 1.29 1.82 1.76 1.74 1.36 1.75 2.04 3.76 2.72 2.76 3.10 2.42 1.12 0.68 0.72 0.34 0.41 0.52 0.45 0.34 0.31
0.00 0.00 0.00 0.00 0.00 0.00 0.00 0.00 0.00 0.00 0.00 0.00 0.00 0.00 0.00 0.00 0.00 0.01 0.04 0.01 0.01 0.03 0.06 0.11 0.18 0.16 0.22 0.27 0.34 0.37 0.55 0.43 0.26 0.59 0.80 1.38 1.19 1.02 1.81 2.09 2.46 1.31 1.28 2.29 1.83 1.35 1.27 1.73 1.63 1.69 1.59 1.54 1.16 1.51 0.97 0.56 0.97 1.23 1.10 1.15 1.41 0.78 1.64 1.25 0.90 1.56 2.13 1.69 1.96 1.95 2.68 2.09 2.18 2.29 2.47 1.95 1.63 2.43 2.75 2.09 1.38 1.14 1.14 1.19 1.77 2.12 2.89 2.74 1.74 1.49 1.20 0.70 0.41 0.32 0.65 0.71 0.72
0.00 0.00 0.00 0.00 0.00 0.00 0.00 0.00 0.00 0.00 0.00 0.00 0.00 0.00 0.00 0.00 0.00 0.01 0.02 0.02 0.01 0.01 0.06 0.18 0.23 0.12 0.20 0.21 0.38 0.31 0.43 0.37 0.52 0.45 0.53 1.06 1.56 2.06 2.12 2.15 1.91 2.09 2.15 2.49 1.73 1.22 1.25 1.67 1.42 1.51 1.99 1.38 2.28 1.10 1.01 1.00 1.38 1.53 1.42 1.48 1.59 1.37 1.17 1.14 1.07 1.55 1.38 1.40 1.45 1.62 2.21 1.88 1.56 1.34 1.46 1.81 2.10 2.21 2.19 2.00 1.56 1.74 1.69 1.24 1.30 2.00 2.60 2.58 1.89 1.23 1.18 0.83 0.42 0.33 0.38 0.95 0.99
0.00 0.00 0.00 0.00 0.00 0.00 0.00 0.00 0.00 0.00 0.00 0.00 0.00 0.00 0.00 0.00 0.00 0.01 0.05 0.03 0.02 0.08 0.12 0.22 0.16 0.22 0.24 0.20 0.17 0.20 0.30 0.48 0.54 0.96 1.57 2.07 3.04 3.38 3.37 2.77 1.94 2.72 2.65 2.23 1.60 1.50 1.00 2.09 1.89 1.61 2.50 1.98 1.63 1.51 1.64 1.28 1.78 1.86 1.70 1.36 1.37 1.56 0.90 0.92 0.55 1.19 1.05 0.92 0.93 0.62 1.19 1.41 1.30 1.90 1.81 1.53 1.99 2.13 2.34 2.19 1.92 1.89 1.68 1.44 1.25 1.04 1.29 1.94 2.59 1.98 1.21 1.03 0.74 0.70 0.45 1.22 1.07
0.00 0.00 0.00 0.00 0.00 0.00 0.01 0.00 0.00 0.00 0.00 0.00 0.00 0.00 0.00 0.00 0.00 0.01 0.04 0.02 0.03 0.06 0.33 0.36 0.43 0.22 0.66 0.22 0.32 0.23 0.24 0.38 0.90 1.33 1.62 2.12 3.46 3.95 2.36 2.44 3.25 4.56 5.28 3.39 2.61 2.46 1.99 1.60 1.14 1.52 1.58 1.51 2.07 1.66 1.67 1.34 1.53 1.82 1.65 1.20 1.33 0.98 0.53 0.73 0.48 0.60 0.72 0.67 0.76 0.61 0.46 1.48 1.54 1.19 1.05 1.05 1.26 1.85 2.24 2.12 2.10 2.93 2.09 1.69 1.68 1.41 1.29 1.43 1.63 2.02 1.83 1.28 1.05 1.22 1.34 1.61 1.68
0.00 0.00 0.00 0.00 0.00 0.00 0.00 0.00 0.00 0.00 0.00 0.00 0.00 0.00 0.00 0.00 0.00 0.01 0.01 0.02 0.01 0.06 0.11 0.20 0.30 0.59 0.24 0.14 0.54 0.48 0.37 0.41 0.49 0.99 1.92 2.27 2.70 2.99 2.51 2.68 3.23 4.11 3.70 2.82 3.17 3.38 2.34 1.32 1.29 1.05 1.07 1.54 1.46 1.72 0.93 1.40 1.11 1.20 1.40 1.15 1.09 0.64 0.84 0.90 1.21 1.26 0.80 1.00 0.56 0.59 0.73 0.93 1.10 1.13 0.87 0.98 1.12 1.42 1.40 1.63 1.95 2.65 2.16 2.44 2.23 1.83 1.58 1.10 1.49 1.93 2.30 2.19 1.95 1.92 2.52 1.75 2.21
0.00 0.01 0.02 0.00 0.00 0.00 0.00 0.00 0.00 0.00 0.00 0.00 0.00 0.00 0.00 0.00 0.00 0.01 0.04 0.08 0.03 0.04 0.12 0.18 0.25 0.19 0.48 0.47 0.65 0.60 0.41 0.41 0.70 1.67 1.85 2.43 3.24 2.48 3.19 3.56 4.33 2.51 2.28 2.19 2.46 2.15 1.68 1.70 0.67 0.92 1.26 1.15 1.45 1.61 2.35 1.99 1.37 1.29 1.64 1.65 1.04 0.94 0.93 0.77 1.01 1.10 0.59 0.62 0.89 1.05 1.04 0.93 0.55 0.82 0.65 1.04 1.98 1.11 1.35 1.79 1.73 1.36 2.09 3.23 2.53 2.09 1.28 1.46 1.67 1.91 1.73 2.00 2.35 2.15 1.85 1.83 1.97
0.00 0.00 0.00 0.01 0.00 0.01 0.00 0.00 0.00 0.00 0.00 0.00 0.00 0.00 0.00 0.00 0.00 0.00 0.00 0.03 0.07 0.10 0.28 0.21 0.22 0.20 0.29 0.16 0.13 0.47 0.77 0.70 1.18 2.06 1.66 2.21 2.82 3.96 3.25 2.69 2.50 2.09 2.46 2.05 2.27 2.44 2.31 2.02 1.27 1.19 1.24 2.25 2.19 2.08 1.82 2.06 1.79 1.65 1.03 0.84 0.79 0.77 0.80 0.73 0.64 0.62 0.71 0.66 1.23 1.51 1.26 0.87 0.96 0.94 0.68 0.76 0.80 0.80 1.03 1.18 2.31 2.32 1.28 2.07 1.73 2.27 2.07 1.72 1.76 2.02 1.96 1.92 2.33 1.74 1.93 1.80 2.40
0.00 0.00 0.00 0.00 0.00 0.00 0.00 0.00 0.00 0.00 0.00 0.00 0.00 0.00 0.00 0.00 0.00 0.00 0.02 0.03 0.03 0.02 0.09 0.13 0.22 0.17 0.33 0.17 0.13 0.30 0.77 0.63 1.48 2.33 2.81 3.20 3.31 3.35 2.79 1.48 1.79 1.67 1.69 2.04 1.78 1.56 1.59 1.84 1.78 1.75 2.52 2.57 2.02 1.40 1.26 1.73 1.62 1.18 0.74 0.87 0.86 0.80 0.77 0.73 0.46 0.63 0.72 0.96 1.56 1.13 0.91 0.86 0.70 0.94 0.68 0.96 0.77 0.84 1.02 0.88 1.36 1.44 1.47 1.72 1.73 1.75 1.85 2.49 2.45 2.15 1.97 3.01 1.91 2.43 2.58 2.26 2.70
0.00 0.00 0.00 0.00 0.00 0.00 0.00 0.00 0.00 0.00 0.00 0.00 0.00 0.00 0.00 0.00 0.00 0.01 0.01 0.01 0.01 0.01 0.02 0.08 0.11 0.26 0.24 0.18 0.14 0.33 0.80 0.84 1.47 2.31 2.15 2.75 2.69 1.92 1.54 1.56 2.41 2.49 2.61 2.73 4.09 3.47 2.07 1.06 1.47 1.57 1.80 0.93 0.98 1.57 1.07 1.09 0.90 0.83 1.07 1.19 1.42 0.83 1.17 1.05 0.96 0.69 1.03 1.21 1.05 1.18 0.68 0.85 0.53 0.50 0.55 0.44 0.48 0.93 0.76 0.74 0.81 1.19 1.63 2.04 1.65 1.67 1.08 1.44 1.94 2.01 1.91 1.39 2.07 1.83 1.77 2.69 2.69
0.00 0.00 0.00 0.00 0.00 0.00 0.04 0.00 0.00 0.00 0.00 0.00 0.00 0.00 0.00 0.00 0.00 0.00 0.01 0.00 0.01 0.03 0.03 0.12 0.18 0.21 0.38 0.34 0.30 0.21 0.31 1.25 2.74 2.59 2.32 3.17 2.78 2.37 1.95 1.33 2.17 1.15 1.20 1.58 2.25 1.65 2.75 2.59 2.16 1.57 0.93 0.69 0.77 0.74 0.89 0.62 0.65 0.74 0.68 0.60 1.02 0.90 0.60 0.53 0.56 0.82 1.19 1.20 1.12 0.52 0.98 0.98 0.66 0.39 0.32 0.52 0.30 0.51 0.76 0.71 1.01 0.84 1.36 1.50 1.64 1.89 1.55 1.37 1.12 1.61 1.67 1.59 1.82 2.10 1.53 2.53 1.96
0.00 0.00 0.00 0.00 0.00 0.01 0.00 0.05 0.00 0.00 0.00 0.00 0.00 0.00 0.00 0.00 0.00 0.00 0.00 0.01 0.02 0.01 0.05 0.08 0.17 0.32 0.66 0.60 0.61 0.40 0.33 0.50 1.39 2.06 2.46 3.00 2.27 2.61 1.08 1.72 2.25 1.61 1.23 1.36 1.58 2.02 2.59 1.53 1.77 1.34 1.35 1.27 1.13 0.89 0.89 0.65 0.73 0.70 0.44 0.42 0.49 0.54 0.49 0.47 0.42 0.48 1.12 0.91 0.79 0.42 0.59 0.62 0.56 0.71 0.55 0.53 0.21 0.28 0.52 0.60 1.05 0.81 0.76 0.96 1.08 1.40 1.44 1.21 1.30 1.09 0.96 1.35 1.28 1.85 1.44 2.00 1.89
0.00 0.00 0.00 0.00 0.00 0.00 0.00 0.00 0.00 0.00 0.01 0.00 0.00 0.02 0.02 0.01 0.00 0.00 0.00 0.01 0.05 0.01 0.03 0.08 0.14 0.05 0.20 0.24 0.42 0.17 0.29 1.48 1.65 2.12 2.86 1.91 2.90 2.95 1.93 2.66 2.39 1.20 1.37 1.95 1.67 2.72 2.88 2.90 2.04 1.89 2.53 1.83 1.25 0.66 0.48 0.68 0.71 0.65 0.75 0.57 0.27 0.38 0.24 0.24 0.23 0.15 0.20 0.44 0.65 0.32 0.45 0.57 0.58 0.74 0.61 0.50 0.33 0.40 0.51 0.45 0.63 0.80 0.72 0.67 0.76 0.98 0.94 1.38 1.49 1.41 0.79 0.81 0.82 1.15 1.16 1.23 1.85
0.00 0.05 0.00 0.00 0.00 0.00 0.00 0.00 0.00 0.04 0.07 0.06 0.00 0.03 0.05 0.01 0.01 0.00 0.00 0.00 0.01 0.00 0.03 0.14 0.20 0.17 0.10 0.15 0.17 0.46 0.72 1.40 2.39 2.55 2.20 2.96 4.96 3.20 3.11 3.71 1.77 0.79 1.33 0.66 0.97 1.54 2.81 2.97 1.60 2.49 1.77 0.95 0.63 0.67 0.53 0.33 0.52 0.37 0.37 0.34 0.21 0.27 0.32 0.21 0.24 0.19 0.23 0.37 0.53 0.63 0.52 0.62 0.98 0.83 0.83 0.65 0.40 0.37 0.62 0.44 0.35 0.28 0.49 1.10 1.11 0.79 0.84 0.77 0.97 1.04 1.39 1.49 0.91 0.99 1.24 1.03 1.00
0.03 0.04 0.00 0.00 0.00 0.00 0.01 0.00 0.00 0.06 0.01 0.01 0.00 0.01 0.06 0.06 0.04 0.00 0.01 0.01 0.02 0.02 0.03 0.10 0.25 0.20 0.14 0.32 0.31 0.25 0.93 1.74 1.50 1.33 2.24 3.50 3.55 2.52 2.83 1.46 0.73 1.15 0.57 0.98 1.96 1.39 1.95 1.02 1.78 1.17 0.99 0.66 0.78 0.80 0.76 1.13 0.37 0.27 0.32 0.33 0.20 0.19 0.28 0.22 0.18 0.19 0.38 0.44 0.61 0.75 0.54 0.89 0.97 0.83 1.01 0.77 0.70 0.70 0.79 0.64 0.43 0.46 0.34 0.56 0.53 0.57 0.68 0.77 0.88 1.33 1.48 1.55 1.75 1.54 1.27 1.10 0.85
0.07 0.00 0.00 0.01 0.00 0.04 0.00 0.00 0.02 0.06 0.02 0.09 0.01 0.01 0.01 0.06 0.04 0.00 0.01 0.02 0.02 0.05 0.03 0.14 0.09 0.11 0.21 0.45 0.30 0.44 0.63 0.72 1.42 1.48 2.91 2.39 1.43 3.09 2.60 1.90 1.18 1.08 2.85 1.95 0.87 1.41 2.38 1.62 0.61 0.75 1.28 1.55 0.99 0.63 0.83 0.34 0.26 0.40 0.33 0.23 0.17 0.28 0.33 0.41 0.32 0.37 0.45 0.45 0.61 0.52 0.43 0.66 1.08 2.08 1.06 0.85 1.11 1.01 0.99 0.50 0.52 0.49 0.58 0.46 0.36 0.74 0.82 0.79 0.95 0.92 0.95 1.19 1.44 1.48 1.42 1.33 1.41
0.00 0.00 0.00 0.00 0.00 0.00 0.00 0.01 0.01 0.05 0.01 0.04 0.05 0.05 0.04 0.03 0.05 0.01 0.01 0.03 0.10 0.09 0.11 0.11 0.16 0.14 0.30 0.20 0.31 0.29 0.75 1.01 1.21 2.52 2.61 1.14 2.23 2.39 2.07 1.36 1.08 2.52 2.75 2.00 1.58 1.28 1.08 1.05 1.54 2.36 2.60 2.87 1.61 1.09 0.75 0.71 0.62 0.62 0.60 0.44 0.36 0.54 0.30 0.33 0.41 0.56 0.48 0.57 0.42 0.47 0.55 0.54 0.65 1.17 1.49 1.01 1.03 1.32 0.99 0.52 0.50 0.51 0.61 0.52 0.31 0.66 0.57 0.58 0.66 0.59 0.70 0.72 1.14 1.47 1.50 1.65 1.73
0.00 0.00 0.00 0.01 0.00 0.01 0.00 0.00 0.03 0.03 0.04 0.02 0.01 0.04 0.01 0.08 0.17 0.11 0.19 0.06 0.09 0.11 0.16 0.15 0.11 0.15 0.29 0.19 0.32 0.52 0.66 0.63 1.61 3.12 1.84 1.94 3.24 2.52 2.35 2.35 2.84 3.82 3.66 2.63 1.41 0.73 0.92 0.81 1.19 1.33 1.38 1.38 0.86 1.08 0.91 1.00 0.68 0.52 0.56 0.62 0.83 0.53 0.43 0.30 0.44 0.50 0.83 0.47 0.39 0.38 0.28 0.47 0.65 0.78 0.89 1.15 1.36 0.77 0.63 0.63 0.44 0.38 0.50 0.61 0.71 0.69 0.21 0.79 0.67 0.50 0.81 0.65 0.86 1.13 1.16 1.42 1.46
0.00 0.00 0.02 0.01 0.03 0.01 0.02 0.06 0.05 0.10 0.01 0.03 0.03 0.01 0.11 0.06 0.19 0.14 0.10 0.08 0.09 0.10 0.17 0.10 0.29 0.11 0.12 0.15 0.34 0.54 0.53 0.64 1.36 1.16 0.56 1.54 3.12 1.97 2.33 2.38 2.83 2.37 2.27 1.90 1.22 0.79 0.65 0.59 0.37 0.80 2.32 1.58 3.10 2.60 2.00 1.08 0.59 0.57 0.76 0.78 0.70 0.91 0.64 0.64 0.69 0.77 0.44 0.56 0.39 0.34 0.25 0.28 0.26 0.39 0.65 0.96 0.63 0.74 0.52 0.53 0.48 0.59 0.35 0.52 0.75 0.99 0.67 0.47 0.52 0.69 0.91 0.73 0.65 0.97 1.36 1.38 1.27
0.00 0.00 0.01 0.08 0.09 0.01 0.10 0.05 0.06 0.04 0.01 0.13 0.01 0.03 0.03 0.01 0.41 0.15 0.06 0.11 0.08 0.14 0.10 0.12 0.10 0.14 0.16 0.16 0.15 0.34 0.39 0.76 1.47 1.48 1.62 2.01 1.46 1.67 1.40 1.59 1.45 2.19 2.05 2.29 1.52 1.31 0.75 0.81 0.50 0.98 2.50 2.16 0.88 0.50 0.50 0.62 0.69 1.09 1.47 1.10 0.94 0.93 0.85 0.54 0.73 0.69 0.65 0.62 0.34 0.26 0.08 0.23 0.22 0.09 0.16 0.45 0.55 0.47 0.34 0.33 0.21 0.13 0.26 0.75 1.39 0.56 0.76 0.71 0.93 0.74 1.05 0.73 0.75 0.69 0.60 0.72 1.30
0.00 0.01 0.11 0.06 0.14 0.04 0.03 0.11 0.04 0.07 0.03 0.04 0.09 0.05 0.05 0.22 0.25 0.14 0.25 0.34 0.29 0.29 0.13 0.09 0.10 0.14 0.18 0.19 0.45 0.97 1.44 1.74 1.41 1.29 1.46 1.87 1.55 1.83 1.65 2.03 2.09 2.51 1.55 1.86 1.65 2.23 1.94 1.14 0.99 1.28 1.41 0.91 0.40 0.49 0.36 0.43 0.63 0.82 1.42 1.38 1.25 1.14 1.02 0.97 0.94 0.84 0.71 0.62 0.26 0.13 0.19 0.25 0.12 0.09 0.18 0.39 0.32 0.36 0.15 0.10 0.19 0.38 0.46 1.13 1.21 0.76 0.53 0.62 0.72 0.45 0.73 0.95 0.92 0.84 1.09 0.96 1.24
0.01 0.00 0.01 0.17 0.12 0.17 0.05 0.08 0.07 0.02 0.18 0.08 0.05 0.01 0.05 0.19 0.75 0.05 0.18 0.27 0.32 0.25 0.31 0.25 0.24 0.19 0.25 0.55 0.64 0.39 0.42 0.56 0.52 0.94 1.66 1.47 1.18 1.21 1.88 2.15 2.57 1.97 1.55 1.98 1.70 1.32 1.96 2.52 1.58 2.30 2.21 1.02 0.68 0.54 0.73 0.40 0.66 0.97 0.84 1.35 0.65 0.67 1.10 1.01 0.85 0.91 0.79 0.68 0.51 0.26 0.31 0.26 0.16 0.17 0.30 0.32 0.31 0.31 0.16 0.23 0.24 0.31 0.59 0.76 0.69 0.67 0.50 0.75 0.81 0.95 0.59 0.78 0.83 1.05 0.96 0.93 0.95
0.00 0.01 0.00 0.02 0.08 0.03 0.12 0.26 0.05 0.25 0.13 0.04 0.04 0.02 0.28 0.64 0.44 0.18 0.17 0.11 0.15 0.11 0.10 0.13 0.17 0.18 0.21 0.30 0.20 0.26 0.35 0.34 0.41 0.59 0.69 0.71 1.37 1.51 2.12 2.94 2.68 2.02 1.51 1.53 1.29 2.00 1.66 1.13 1.84 2.12 2.24 1.66 1.61 0.84 0.44 0.24 0.52 0.72 0.71 0.45 0.47 0.65 0.42 0.73 0.54 0.69 0.95 0.89 0.54 0.33 0.32 0.27 0.30 0.22 0.43 0.22 0.30 0.31 0.49 0.49 0.41 0.45 0.50 0.74 0.69 0.59 0.40 0.59 1.01 0.92 0.77 0.55 0.99 0.65 0.77 0.87 1.02
0.30 0.00 0.09 0.07 0.05 0.02 0.09 0.00 0.01 0.01 0.00 0.04 0.03 0.12 0.15 0.08 0.33 0.32 0.38 0.25 0.19 0.27 0.29 0.27 0.26 0.29 0.26 0.25 0.31 0.40 0.30 0.30 0.21 0.48 0.97 1.44 1.25 1.83 1.99 1.20 1.86 1.38 1.55 1.24 1.65 1.50 1.48 1.31 1.68 1.66 2.30 2.33 1.92 1.42 1.26 0.25 0.56 0.55 0.44 0.71 0.37 0.38 0.45 0.59 0.68 0.58 0.67 0.63 0.87 0.48 0.39 0.32 0.54 0.49 0.85 0.35 0.25 0.19 0.54 0.29 0.39 0.42 0.53 0.60 0.76 0.52 0.73 1.08 0.92 1.24 0.66 1.02 0.47 0.49 0.84 0.70 0.83
0.09 0.04 0.11 0.01 0.00 0.04 0.05 0.13 0.08 0.03 0.03 0.04 0.00 0.06 0.29 0.07 0.90 0.35 0.46 0.21 0.17 0.26 0.29 0.26 0.34 0.33 0.36 0.58 0.44 0.46 0.54 0.36 0.57 1.26 1.41 1.67 1.81 1.29 1.24 1.34 1.31 1.40 1.73 1.97 1.20 0.94 1.20 2.01 2.63 3.61 3.55 5.22 2.75 1.91 0.74 0.54 0.76 0.59 0.67 0.50 0.64 0.22 0.16 0.14 0.24 0.40 0.82 1.43 0.64 0.53 0.61 0.83 0.92 0.95 0.57 0.37 0.18 0.23 0.47 0.45 0.61 0.53 0.58 0.70 0.60 0.90 1.21 1.11 0.91 0.72 0.54 0.68 0.75 0.74 0.72 0.75 0.66
0.02 0.07 0.03 0.03 0.19 0.14 0.08 0.01 0.03 0.08 0.01 0.07 0.01 0.07 0.15 0.16 0.50 0.23 0.28 0.29 0.22 0.23 0.28 0.34 0.34 0.41 0.38 0.43 0.87 1.10 1.25 1.22 1.24 1.26 1.25 1.47 1.32 1.29 1.55 1.54 1.86 2.84 1.69 1.70 1.22 2.04 1.74 1.33 2.69 1.94 2.82 3.57 2.19 1.85 1.75 1.74 1.53 0.99 0.95 0.42 0.24 0.17 0.14 0.19 0.33 0.59 1.09 0.91 0.60 1.05 1.00 0.87 0.84 0.34 0.36 0.46 0.16 0.14 0.28 0.48 0.57 0.49 0.32 0.56 0.70 1.05 1.23 0.73 0.71 0.61 0.60 0.45 0.41 0.61 0.67 0.54 0.62
0.00 0.00 0.00 0.03 0.02 0.07 0.16 0.09 0.20 0.04 0.22 0.03 0.06 0.12 0.30 0.15 0.40 0.19 0.23 0.17 0.29 0.22 0.24 0.38 0.40 0.54 0.74 0.58 0.68 0.82 1.37 1.59 1.02 1.10 0.95 1.25 1.24 1.54 1.73 1.49 1.37 1.44 1.28 1.09 1.68 1.53 1.23 1.79 2.69 3.17 2.59 2.80 2.36 2.57 2.11 1.42 1.62 1.71 0.68 0.35 0.49 0.50 0.14 0.30 0.33 0.89 1.04 0.88 1.41 1.00 0.76 0.80 0.17 0.15 0.18 0.39 0.33 0.19 0.36 0.69 0.55 0.43 0.33 0.77 0.40 0.56 0.99 1.44 1.15 0.95 0.80 0.73 0.74 0.75 0.64 0.53 0.63
0.06 0.02 0.01 0.02 0.02 0.03 0.03 0.21 0.07 0.17 0.28 0.13 0.16 0.16 0.32 0.41 0.20 0.11 0.23 0.21 0.23 0.21 0.49 0.75 0.72 1.11 1.39 1.53 1.53 1.55 1.57 1.13 1.22 1.43 1.15 2.37 4.05 4.00 2.42 2.20 2.07 1.66 1.22 1.97 2.12 1.81 1.25 2.07 1.79 1.73 1.61 1.62 1.57 2.17 2.00 2.01 1.66 0.85 0.68 0.35 0.44 0.39 0.59 0.37 0.25 0.17 1.37 0.95 1.09 0.81 0.75 0.73 0.50 0.20 0.09 0.14 0.19 0.28 0.45 0.58 0.64 0.55 0.45 0.44 0.53 0.62 0.80 0.59 1.07 0.70 0.80 0.80 0.70 0.56 0.52 0.61 0.50
0.04 0.08 0.13 0.07 0.16 0.26 0.23 0.40 0.02 0.10 0.19 0.21 0.11 0.22 0.48 0.42 0.10 0.15 0.17 0.36 0.31 0.30 0.49 0.61 0.78 0.45 0.50 0.60 0.41 0.43 0.77 1.09 1.62 1.56 1.24 1.16 2.34 2.33 2.38 1.99 1.52 1.53 2.45 2.77 2.02 2.07 1.63 1.33 0.92 1.34 2.07 1.86 1.47 1.57 1.85 1.53 1.41 1.09 0.83 0.99 1.06 1.61 1.02 0.33 0.26 0.64 1.92 1.35 1.23 0.61 0.98 1.18 0.90 0.43 0.52 0.62 0.47 0.34 0.55 0.65 0.60 0.88 0.50 0.78 0.74 0.61 0.54 0.60 0.56 0.52 0.49 0.79 0.69 0.60 0.54 0.33 0.52